Weather History for KSGF - October, 2014

Change the Weather History Date:

Saturday, October 4, 2014

  Actual Average Record
Temperature  
Mean Temperature 51 °F 62 °F  
Max Temperature 61 °F 73 °F 91 °F (1938)
Min Temperature 40 °F 50 °F 32 °F (1968)
Degree Days  
Heating Degree Days 14 5  
Month to date heating degree days 28 20  
Since 1 July heating degree days 59 75  
Cooling Degree Days 0 2  
Month to date cooling degree days 14 8  
Year to date cooling degree days 1439 1367  
Growing Degree Days 1 (Base 50)    
Moisture  
Dew Point 33 °F    
Average Humidity 53    
Maximum Humidity 76    
Minimum Humidity 29    
Precipitation  
Precipitation 0.00 in 0.12 in 1.88 in (1903)
Month to date precipitation 1.73 0.50  
Year to date precipitation 28.70 35.22  
Snow  
Snow 0.00 in - - ()
Month to date snowfall 0.0  
Since 1 July snowfall 0.0  
Since 1 September snowfall 0.0  
Snow Depth 0.00 in    
Sea Level Pressure  
Sea Level Pressure 30.04 in    
Wind  
Wind Speed 9 mph (West)    
Max Wind Speed 21 mph    
Max Gust Speed 31 mph    
Visibility 10 miles    
Events      
T = Trace of Precipitation, MM = Missing Value Source: NWS Daily Summary

Daily Weather History Graph

Daily Weather History Graph

Search for Another Location

Airport or City:

Trip Planner

Search our weather history database for the weather conditions in past years. The results will help you decide how hot, cold, wet, or windy it might be!

Date:

Astronomy

Oct. 04, 2014 Rise Set
Actual Time 7:11 AM CDT 6:52 PM CDT
Civil Twilight 6:45 AM CDT 7:18 PM CDT
Nautical Twilight 6:15 AM CDT 7:48 PM CDT
Astronomical Twilight 5:45 AM CDT 8:18 PM CDT
Moon 4:25 PM CDT (10/4) 2:45 AM CDT (10/4)
Length of Visible Light 12h 32m
Length of Day
11h 40m
Waxing Gibbous, 81% of the Moon is Illuminated
Oct 4
Waxing Gibbous
Oct 8
Full
Oct 15
Last Quarter
Oct 23
New
Oct 30
First Quarter

Hourly Weather History & Observations

Time (CDT) Temp. Windchill Dew Point Humidity Pressure Visibility Wind Dir Wind Speed Gust Speed Precip Events Conditions
12:52 AM 44.6 °F 40.2 °F 35.6 °F 71% 30.09 in 10.0 mi West 8.1 mph - N/A   Clear
1:52 AM 44.1 °F 40.8 °F 35.1 °F 71% 30.09 in 10.0 mi West 5.8 mph - N/A   Clear
2:52 AM 43.0 °F 38.8 °F 35.1 °F 74% 30.09 in 10.0 mi West 6.9 mph - N/A   Clear
3:52 AM 43.0 °F 37.7 °F 35.1 °F 74% 30.10 in 10.0 mi West 9.2 mph - N/A   Clear
4:52 AM 43.0 °F 37.2 °F 34.0 °F 71% 30.10 in 10.0 mi West 10.4 mph - N/A   Clear
5:52 AM 42.1 °F 37.1 °F 33.1 °F 70% 30.09 in 10.0 mi West 8.1 mph - N/A   Clear
6:52 AM 42.1 °F 36.6 °F 33.1 °F 70% 30.10 in 10.0 mi West 9.2 mph - N/A   Clear
7:52 AM 41.0 °F 37.1 °F 33.1 °F 73% 30.11 in 10.0 mi WNW 5.8 mph - N/A   Clear
8:52 AM 45.0 °F 41.2 °F 34.0 °F 65% 30.11 in 10.0 mi NW 6.9 mph - N/A   Clear
9:52 AM 48.0 °F - 33.1 °F 56% 30.11 in 10.0 mi NW 9.2 mph - N/A   Clear
10:52 AM 52.0 °F - 32.0 °F 47% 30.11 in 10.0 mi NW 10.4 mph - N/A   Clear
11:52 AM 54.0 °F - 28.0 °F 37% 30.10 in 10.0 mi NW 15.0 mph 25.3 mph N/A   Clear
12:52 PM 57.0 °F - 30.0 °F 36% 30.08 in 10.0 mi NW 16.1 mph 25.3 mph N/A   Clear
1:52 PM 55.9 °F - 28.0 °F 34% 30.06 in 10.0 mi WNW 13.8 mph 24.2 mph N/A   Clear
2:36 PM 59.0 °F - 30.0 °F 33% 30.03 in 10.0 mi WNW 11.5 mph 21.9 mph N/A   Clear
2:52 PM 57.9 °F - 30.0 °F 35% 30.03 in 10.0 mi West 16.1 mph 20.7 mph N/A   Clear
3:52 PM 60.1 °F - 28.9 °F 31% 30.00 in 10.0 mi NW 16.1 mph 26.5 mph N/A   Clear
4:52 PM 60.1 °F - 30.0 °F 32% 29.98 in 10.0 mi WNW 10.4 mph - N/A   Clear
5:52 PM 59.0 °F - 30.9 °F 35% 29.98 in 10.0 mi WNW 8.1 mph - N/A   Clear
6:52 PM 55.0 °F - 33.1 °F 43% 29.97 in 10.0 mi West 6.9 mph - N/A   Clear
7:52 PM 50.0 °F - 37.0 °F 61% 29.96 in 10.0 mi SSW 5.8 mph - N/A   Clear
8:52 PM 45.0 °F 41.2 °F 37.9 °F 76% 29.96 in 10.0 mi SSW 6.9 mph - N/A   Clear
9:52 PM 46.9 °F - 37.0 °F 68% 29.96 in 10.0 mi SSW 4.6 mph - N/A   Clear
10:52 PM 46.9 °F - 37.0 °F 68% 29.93 in 10.0 mi South 4.6 mph - N/A   Clear
11:52 PM 46.9 °F - 39.0 °F 74% 29.92 in 10.0 mi South 3.5 mph - N/A   Overcast